Location: Newark
(52.4787°S, 179.0532°W)
Time: 08:05:46
(UTC+00:00)

Transit 2A Rocket - Pass Details

Date: 26 November 2019
Orbit: 594 x 909 km, 66.7° (Epoch: 11 December)

Event Time Altitude Azimuth Distance (km) Brightness Sun altitude
Rises 00:19:48 0° 244° (WSW) 3,526 8.4 57.6°
Reaches altitude 10° 00:22:58 10° 228° (SW) 2,611 7.7 57.4°
Maximum altitude 00:27:33 21° 179° (S) 1,939 7.0 57.2°
Drops below altitude 10° 00:32:08 10° 131° (SE) 2,617 7.6 57.0°
Sets 00:35:19 0° 115° (ESE) 3,536 8.2 56.8°
